Nadi, Fiji

1:08 PM FJT on September 26, 2016 (GMT +1200)
Nadi International

Weather History for NFFN - February, 2013

Change the Weather History Date:

Tuesday, February 5, 2013

  Actual Average Record
Temperature  
Mean Temperature 81 °F -  
Max Temperature 87 °F 86 °F 95 °F (2016)
Min Temperature 75 °F 73 °F 69 °F (2011)
Cooling Degree Days 16    
Growing Degree Days 31 (Base 50)    
Moisture  
Dew Point 75 °F    
Average Humidity 85    
Maximum Humidity 100    
Minimum Humidity 61    
Precipitation  
Precipitation 0.04 in - - ()
Sea Level Pressure  
Sea Level Pressure 29.70 in    
Wind  
Wind Speed 4 mph ()    
Max Wind Speed 17 mph    
Max Gust Speed -    
Visibility 11.1 miles    
Events Rain    
Averages and records for this station are not official NWS values.
T = Trace of Precipitation, MM = Missing Value Source: Averaged Metar Reports

Daily Weather History Graph

Daily Weather History Graph

Search for Another Location

Airport or City:

Trip Planner

Search our weather history database for the weather conditions in past years. The results will help you decide how hot, cold, wet, or windy it might be!

Date:

Astronomy

Feb. 05, 2013 Rise Set
Actual Time 5:59 AM FJT 6:48 PM FJT
Civil Twilight 5:36 AM FJT 7:11 PM FJT
Nautical Twilight 5:09 AM FJT 7:38 PM FJT
Astronomical Twilight 4:42 AM FJT 8:05 PM FJT
Moon 12:30 AM FJT (2/5) 1:52 PM FJT (2/5)
Length of Visible Light 13h 34m
Length of Day
12h 49m
Waning Crescent, 34% of the Moon is Illuminated
Feb 5
Waning Crescent
Feb 10
New
Feb 18
First Quarter
Feb 26
Full
Mar 5
Last Quarter

Hourly Weather History & Observations

Time (FJT) Temp. Heat Index Dew Point Humidity Pressure Visibility Wind Dir Wind Speed Gust Speed Precip Events Conditions
12:00 AM 77 °F - 76 °F 94% 29.75 in 12 mi Calm Calm - -   Partly Cloudy
12:00 AM 77.0 °F - 75.2 °F 94% 29.74 in 24.9 mi Calm Calm - N/A   Partly Cloudy
1:00 AM 77.0 °F - 75.2 °F 94% 29.71 in 24.9 mi Calm Calm - N/A Rain Light Rain Showers
2:00 AM 77.0 °F - 77.0 °F 100% 29.68 in 24.9 mi East 3.5 mph - N/A   Partly Cloudy
3:00 AM 76 °F - 75 °F 97% 29.70 in 12 mi ESE 3.5 mph - -   Partly Cloudy
3:00 AM 75.2 °F - 75.2 °F 100% 29.68 in 24.9 mi ESE 3.5 mph - N/A   Partly Cloudy
4:00 AM 75.2 °F - 75.2 °F 100% 29.68 in 24.9 mi ESE 4.6 mph - N/A   Scattered Clouds
5:00 AM 75.2 °F - 75.2 °F 100% 29.68 in 24.9 mi ESE 3.5 mph - N/A Rain Light Rain Showers
6:00 AM 76 °F - 75 °F 96% 29.72 in 12 mi Calm Calm - - Rain Light Rain Showers
6:00 AM 75.2 °F - 75.2 °F 100% 29.71 in 12.4 mi Calm Calm - N/A Rain Light Rain Showers
7:00 AM 77.0 °F - 75.2 °F 94% 29.71 in 21.8 mi Calm Calm - N/A   Scattered Clouds
8:00 AM 78.8 °F - 77.0 °F 94% 29.74 in 28.0 mi ESE 3.5 mph - N/A   Scattered Clouds
9:00 AM 81 °F - 77 °F 83% 29.74 in 12 mi SSW 3.5 mph - -   Partly Cloudy
9:00 AM 80.6 °F 87.1 °F 77.0 °F 89% 29.74 in 28.0 mi SSW 3.5 mph - N/A   Mostly Cloudy
9:30 AM 78.8 °F - 77.0 °F 94% 29.74 in 5.0 mi SSW 10.4 mph - N/A Rain Light Rain Showers
10:00 AM 78.8 °F - 77.0 °F 94% 29.71 in 24.9 mi SSW 6.9 mph - N/A Rain Light Rain Showers
11:00 AM 84.2 °F 96.1 °F 78.8 °F 84% 29.71 in 31.1 mi SSW 6.9 mph - N/A   Scattered Clouds
12:00 PM 86 °F - 74 °F 61% 29.71 in 31 mi South 8.1 mph - -   Partly Cloudy
12:00 PM 86.0 °F 95.1 °F 75.2 °F 70% 29.68 in 31.1 mi South 8.1 mph - N/A   Scattered Clouds
1:00 PM 87.8 °F 99.7 °F 77.0 °F 70% 29.68 in 31.1 mi SW 12.7 mph - N/A   Scattered Clouds
2:00 PM 86.0 °F 95.1 °F 75.2 °F 70% 29.65 in 31.1 mi SSW 16.1 mph - N/A   Scattered Clouds
3:00 PM 85 °F - 75 °F 64% 29.65 in 31 mi SSW 17.3 mph - -   Partly Cloudy
3:00 PM 86.0 °F 95.1 °F 75.2 °F 70% 29.65 in 31.1 mi SSW 17.3 mph - N/A   Scattered Clouds
4:00 PM 84.2 °F 92.3 °F 75.2 °F 74% 29.62 in 31.1 mi South 10.4 mph - N/A   Scattered Clouds
5:00 PM 86.0 °F 95.1 °F 75.2 °F 70% 29.65 in 31.1 mi South 10.4 mph - N/A   Mostly Cloudy
6:00 PM 84 °F - 75 °F 69% 29.67 in 31 mi ENE 9.2 mph - -   Partly Cloudy
6:00 PM 84.2 °F 92.3 °F 75.2 °F 74% 29.65 in 31.1 mi ENE 9.2 mph - N/A   Scattered Clouds
7:00 PM 80.6 °F 86.2 °F 75.2 °F 84% 29.68 in 31.1 mi ESE 8.1 mph - N/A   Scattered Clouds
8:00 PM 78.8 °F - 73.4 °F 83% 29.71 in 24.9 mi SE 8.1 mph - N/A   Scattered Clouds
9:00 PM 77 °F - 72 °F 82% 29.74 in 12 mi SE 6.9 mph - -   Partly Cloudy
9:00 PM 77.0 °F - 73.4 °F 89% 29.71 in 24.9 mi SE 6.9 mph - N/A   Partly Cloudy
10:00 PM 77.0 °F - 71.6 °F 83% 29.74 in 24.9 mi SE 5.8 mph - N/A   Partly Cloudy
11:00 PM 75.2 °F - 71.6 °F 89% 29.74 in 24.9 mi SSE 5.8 mph - N/A   Partly Cloudy